| time (UTC) | temp C | wind direction | speed KPH | gust KPH | rain 1hr cm | rain 24hr cm | rain mn cm | humidity % | barometer mb |
| 20260903204558 | 24 | 247 | 9.7 | 22.5 | 0.00 | 0.00 | 0.00 | 29 | 1003.6 |
| 20260903203106 | 24 | 242 | 11.3 | 25.7 | 0.00 | 0.00 | 0.00 | 29 | 1003.7 |
| 20260903201556 | 25 | 225 | 22.5 | 33.8 | 0.00 | 0.00 | 0.00 | 28 | 1003.6 |
| 20260903200055 | 25 | 194 | 19.3 | 29.0 | 0.00 | 0.00 | 0.00 | 28 | 1003.7 |
| 20260903194556 | 24 | 234 | 16.1 | 29.0 | 0.00 | 0.00 | 0.00 | 29 | 1003.7 |
| 20260903193052 | 24 | 259 | 11.3 | 30.6 | 0.00 | 0.00 | 0.00 | 30 | 1003.8 |
| 20260903191551 | 23 | 208 | 11.3 | 32.2 | 0.00 | 0.00 | 0.00 | 30 | 1003.8 |
| 20260903190051 | 24 | 288 | 9.7 | 29.0 | 0.00 | 0.00 | 0.00 | 30 | 1003.7 |
| 20260903184549 | 23 | 215 | 19.3 | 33.8 | 0.00 | 0.00 | 0.00 | 30 | 1003.7 |
| 20260903183047 | 22 | 224 | 16.1 | 30.6 | 0.00 | 0.00 | 0.00 | 35 | 1003.7 |
| 20260903181542 | 22 | 252 | 9.7 | 20.9 | 0.00 | 0.00 | 0.00 | 39 | 1003.8 |
| 20260903180047 | 21 | 200 | 16.1 | 24.1 | 0.00 | 0.00 | 0.00 | 40 | 1004.0 |
| 20260903174537 | 20 | 229 | 11.3 | 20.9 | 0.00 | 0.00 | 0.00 | 44 | 1004.1 |
| 20260903173033 | 20 | 240 | 9.7 | 20.9 | 0.00 | 0.00 | 0.00 | 46 | 1004.3 |
| 20260903171537 | 18 | 212 | 11.3 | 22.5 | 0.00 | 0.00 | 0.00 | 47 | 1004.2 |
| 20260903170036 | 18 | 248 | 12.9 | 24.1 | 0.00 | 0.00 | 0.00 | 48 | 1004.1 |
| 20260903164524 | 17 | 237 | 16.1 | 25.7 | 0.00 | 0.00 | 0.00 | 51 | 1004.0 |
| 20260903163024 | 16 | 194 | 12.9 | 24.1 | 0.00 | 0.00 | 0.00 | 56 | 1004.0 |
| 20260903161515 | 15 | 245 | 9.7 | 22.5 | 0.00 | 0.00 | 0.00 | 59 | 1004.2 |
| 20260903160013 | 15 | 226 | 9.7 | 14.5 | 0.00 | 0.00 | 0.00 | 61 | 1004.2 |
| 20260903154510 | 14 | 211 | 9.7 | 19.3 | 0.00 | 0.00 | 0.00 | 62 | 1004.2 |
| 20260903153006 | 13 | 241 | 9.7 | 16.1 | 0.00 | 0.00 | 0.00 | 63 | 1004.2 |
| 20260903151506 | 13 | 229 | 8.0 | 16.1 | 0.00 | 0.00 | 0.00 | 64 | 1004.1 |
| 20260903150003 | 12 | 239 | 11.3 | 20.9 | 0.00 | 0.00 | 0.00 | 65 | 1004.0 |
| 20260903144610 | 12 | 207 | 11.3 | 19.3 | 0.00 | 0.00 | 0.00 | 66 | 1004.1 |
| 20260903143056 | 11 | 209 | 8.0 | 17.7 | 0.00 | 0.00 | 0.00 | 67 | 1003.9 |
| 20260903141551 | 11 | 237 | 8.0 | 16.1 | 0.00 | 0.00 | 0.00 | 68 | 1003.7 |
| 20260903140051 | 10 | 230 | 8.0 | 14.5 | 0.00 | 0.00 | 0.00 | 68 | 1003.6 |
| 20260903134602 | 10 | 236 | 8.0 | 14.5 | 0.00 | 0.00 | 0.00 | 68 | 1003.6 |
| 20260903133048 | 10 | 234 | 8.0 | 12.9 | 0.00 | 0.00 | 0.00 | 67 | 1003.4 |
| 20260903131545 | 11 | 203 | 9.7 | 25.7 | 0.00 | 0.00 | 0.00 | 65 | 1003.2 |
| 20260903130043 | 10 | 200 | 14.5 | 25.7 | 0.00 | 0.00 | 0.00 | 67 | 1002.6 |
| 20260903124551 | 11 | 207 | 12.9 | 24.1 | 0.00 | 0.00 | 0.00 | 65 | 1002.6 |
| 20260903123040 | 10 | 221 | 12.9 | 22.5 | 0.00 | 0.00 | 0.00 | 67 | 1002.6 |
| 20260903121540 | 10 | 217 | 9.7 | 16.1 | 0.00 | 0.00 | 0.00 | 68 | 1002.6 |
| 20260903120043 | 10 | 217 | 9.7 | 17.7 | 0.00 | 0.00 | 0.00 | 69 | 1002.6 |
| 20260903114540 | 10 | 194 | 12.9 | 22.5 | 0.00 | 0.00 | 0.00 | 69 | 1002.7 |
| 20260903113040 | 9 | 193 | 11.3 | 24.1 | 0.00 | 0.00 | 0.00 | 71 | 1002.7 |
| 20260903111534 | 8 | 192 | 9.7 | 16.1 | 0.00 | 0.00 | 0.00 | 75 | 1002.6 |
| 20260903110036 | 8 | 202 | 6.4 | 11.3 | 0.00 | 0.00 | 0.00 | 74 | 1002.4 |
| 20260903104533 | 8 | 202 | 9.7 | 14.5 | 0.00 | 0.00 | 0.00 | 75 | 1002.6 |
| 20260903103030 | 7 | 190 | 6.4 | 11.3 | 0.00 | 0.00 | 0.00 | 76 | 1002.6 |
| 20260903101527 | 7 | 270 | 1.6 | 6.4 | 0.00 | 0.00 | 0.00 | 76 | 1002.4 |
| 20260903100030 | 8 | 232 | 3.2 | 8.0 | 0.00 | 0.00 | 0.00 | 75 | 1002.5 |
| 20260903094524 | 8 | 261 | 3.2 | 8.0 | 0.00 | 0.00 | 0.00 | 74 | 1002.4 |
| 20260903093023 | 8 | 237 | 6.4 | 9.7 | 0.00 | 0.00 | 0.00 | 75 | 1002.5 |
| 20260903091521 | 8 | 225 | 6.4 | 9.7 | 0.00 | 0.00 | 0.00 | 75 | 1002.5 |
| 20260903090019 | 8 | 259 | 0.0 | 3.2 | 0.00 | 0.00 | 0.00 | 74 | 1002.3 |
| 20260903084535 | 9 | 262 | 0.0 | 3.2 | 0.00 | 0.00 | 0.00 | 72 | 1002.3 |
| 20260903083014 | 9 | 246 | 3.2 | 9.7 | 0.00 | 0.00 | 0.00 | 73 | 1002.0 |
| 20260903081513 | 8 | 235 | 4.8 | 11.3 | 0.00 | 0.00 | 0.00 | 74 | 1002.1 |
| 20260903080010 | 9 | 248 | 4.8 | 9.7 | 0.00 | 0.00 | 0.00 | 74 | 1002.0 |
| 20260903074509 | 9 | 223 | 6.4 | 11.3 | 0.00 | 0.00 | 0.00 | 74 | 1002.1 |
| 20260903073009 | 10 | 234 | 4.8 | 11.3 | 0.00 | 0.00 | 0.00 | 73 | 1002.0 |
| 20260903071506 | 10 | 213 | 9.7 | 14.5 | 0.00 | 0.00 | 0.00 | 72 | 1002.0 |
| 20260903070004 | 10 | 274 | 4.8 | 14.5 | 0.00 | 0.00 | 0.00 | 74 | 1002.0 |
| 20260903064501 | 9 | 306 | 4.8 | 11.3 | 0.00 | 0.00 | 0.00 | 73 | 1001.9 |
| 20260903063110 | 10 | 228 | 3.2 | 9.7 | 0.00 | 0.00 | 0.00 | 70 | 1001.6 |
| 20260903061558 | 11 | 219 | 8.0 | 17.7 | 0.00 | 0.00 | 0.00 | 69 | 1001.3 |
| 20260903060050 | 11 | 248 | 11.3 | 17.7 | 0.00 | 0.00 | 0.00 | 71 | 1001.5 |
| 20260903054549 | 11 | 224 | 9.7 | 19.3 | 0.00 | 0.00 | 0.00 | 73 | 1001.7 |
| 20260903053107 | 10 | 219 | 9.7 | 16.1 | 0.00 | 0.00 | 0.00 | 74 | 1002.1 |
| 20260903051546 | 10 | 210 | 8.0 | 11.3 | 0.00 | 0.00 | 0.00 | 74 | 1002.2 |
| 20260903050057 | 11 | 223 | 4.8 | 11.3 | 0.00 | 0.00 | 0.00 | 74 | 1002.1 |
| 20260903044556 | 11 | 218 | 8.0 | 14.5 | 0.00 | 0.00 | 0.00 | 75 | 1002.2 |
| 20260903043049 | 11 | 242 | 9.7 | 14.5 | 0.00 | 0.00 | 0.00 | 74 | 1002.1 |
| 20260903041549 | 11 | 246 | 9.7 | 16.1 | 0.00 | 0.00 | 0.00 | 74 | 1001.9 |
| 20260903040040 | 11 | 226 | 6.4 | 9.7 | 0.00 | 0.00 | 0.00 | 73 | 1002.0 |
| 20260903034541 | 12 | 216 | 8.0 | 12.9 | 0.00 | 0.00 | 0.00 | 72 | 1001.9 |
| 20260903033038 | 13 | 253 | 4.8 | 11.3 | 0.00 | 0.00 | 0.00 | 70 | 1001.8 |
| 20260903031538 | 13 | 288 | 3.2 | 9.7 | 0.00 | 0.00 | 0.00 | 70 | 1001.4 |
| 20260903030038 | 14 | 275 | 1.6 | 8.0 | 0.00 | 0.00 | 0.00 | 66 | 1001.7 |
| 20260903024537 | 15 | 221 | 3.2 | 16.1 | 0.00 | 0.00 | 0.00 | 63 | 1001.5 |
| 20260903023037 | 15 | 190 | 9.7 | 24.1 | 0.00 | 0.00 | 0.00 | 62 | 1001.2 |
| 20260903021541 | 15 | 199 | 12.9 | 24.1 | 0.00 | 0.00 | 0.00 | 60 | 1000.8 |
| 20260903020036 | 16 | 186 | 12.9 | 22.5 | 0.00 | 0.00 | 0.00 | 60 | 1001.0 |
| 20260903014535 | 16 | 190 | 6.4 | 11.3 | 0.00 | 0.00 | 0.00 | 60 | 1000.8 |
| 20260903013035 | 17 | 223 | 4.8 | 9.7 | 0.00 | 0.00 | 0.00 | 56 | 1000.8 |
| 20260903011536 | 17 | 224 | 1.6 | 14.5 | 0.00 | 0.00 | 0.00 | 58 | 1001.4 |
| 20260903010034 | 16 | 167 | 4.8 | 11.3 | 0.00 | 0.00 | 0.00 | 62 | 1001.6 |
| 20260903004534 | 17 | 223 | 4.8 | 9.7 | 0.00 | 0.00 | 0.00 | 59 | 1001.1 |
| 20260903003033 | 16 | 289 | 8.0 | 24.1 | 0.00 | 0.00 | 0.00 | 59 | 1000.5 |
| 20260903001532 | 16 | 279 | 16.1 | 27.4 | 0.00 | 0.00 | 0.00 | 61 | 1000.6 |
| 20260903000035 | 16 | 300 | 12.9 | 43.5 | 0.00 | 0.00 | 0.00 | 64 | 1001.2 |
| 20260902234532 | 15 | 277 | 17.7 | 37.0 | 0.00 | 0.00 | 0.00 | 66 | 1001.2 |
| 20260902233031 | 15 | 240 | 19.3 | 38.6 | 0.00 | 0.00 | 0.00 | 66 | 1001.5 |
| 20260902231533 | 16 | 220 | 32.2 | 72.4 | 0.00 | 0.00 | 0.00 | 63 | 1001.0 |
| 20260902230030 | 22 | 207 | 33.8 | 57.9 | 0.00 | 0.00 | 0.00 | 39 | 999.6 |
| 20260902224529 | 27 | 140 | 12.9 | 22.5 | 0.00 | 0.00 | 0.00 | 29 | 997.1 |
| 20260902223028 | 27 | 164 | 9.7 | 19.3 | 0.00 | 0.00 | 0.00 | 28 | 997.0 |
| 20260902221533 | 27 | 111 | 8.0 | 17.7 | 0.00 | 0.00 | 0.00 | 28 | 997.0 |
| 20260902220040 | 28 | 143 | 12.9 | 22.5 | 0.00 | 0.00 | 0.00 | 28 | 997.0 |
| 20260902214525 | 28 | 150 | 9.7 | 25.7 | 0.00 | 0.00 | 0.00 | 28 | 997.1 |
| 20260902213021 | 27 | 146 | 8.0 | 17.7 | 0.00 | 0.00 | 0.00 | 29 | 997.4 |
| 20260902211519 | 27 | 162 | 3.2 | 17.7 | 0.00 | 0.00 | 0.00 | 29 | 997.6 |
| 20260902210039 | 27 | 119 | 3.2 | 19.3 | 0.00 | 0.00 | 0.00 | 30 | 997.9 |